Gastonia, NC

11:01 AM EST on January 21, 2017 (GMT -0500)
Gastonia

Weather History for KAKH - February, 2013

Change the Weather History Date:

Wednesday, February 13, 2013

  Actual Average (KCLT) Record (KCLT)
Temperature  
Mean Temperature 46 °F -  
Max Temperature 48 °F 51 °F 74 °F (1951)
Min Temperature 41 °F 31 °F 2 °F (1899)
Degree Days  
Heating Degree Days 20    
Moisture  
Dew Point 44 °F    
Average Humidity 92    
Maximum Humidity 100    
Minimum Humidity 63    
Precipitation  
Precipitation 0.08 in - - ()
Sea Level Pressure  
Sea Level Pressure 29.76 in    
Wind  
Wind Speed 3 mph (East)    
Max Wind Speed 8 mph    
Max Gust Speed -    
Visibility 6 miles    
Events Rain    
Averages and records for this station are not official NWS values.
T = Trace of Precipitation, MM = Missing Value Source: NWS Daily Summary

Daily Weather History Graph

Daily Weather History Graph

Search for Another Location

Airport or City:

Trip Planner

Search our weather history database for the weather conditions in past years. The results will help you decide how hot, cold, wet, or windy it might be!

Date:

Astronomy

Feb. 13, 2013 Rise Set
Actual Time 7:12 AM EST 6:05 PM EST
Civil Twilight 6:46 AM EST 6:31 PM EST
Nautical Twilight 6:16 AM EST 7:01 PM EST
Astronomical Twilight 5:47 AM EST 7:30 PM EST
Moon 8:51 AM EST (2/13) 9:55 PM EST (2/13)
Length of Visible Light 11h 44m
Length of Day
10h 52m
Waxing Crescent, 13% of the Moon is Illuminated
Feb 13
Waxing Crescent
Feb 17
First Quarter
Feb 25
Full
Mar 4
Last Quarter
Mar 11
New

Hourly Weather History & Observations

Time (EST) Temp. Windchill Dew Point Humidity Pressure Visibility Wind Dir Wind Speed Gust Speed Precip Events Conditions
12:54 AM 45.0 °F - 44.1 °F 97% 29.89 in 10.0 mi Calm Calm - 0.00 in   Mostly Cloudy
1:54 AM 46.0 °F - 45.0 °F 96% 29.87 in 10.0 mi Calm Calm - N/A   Overcast
2:54 AM 46.0 °F 43.1 °F 44.1 °F 93% 29.85 in 10.0 mi NE 5.8 mph - 0.02 in   Overcast
3:54 AM 46.0 °F - 44.1 °F 93% 29.84 in 10.0 mi Calm Calm - 0.01 in   Overcast
4:54 AM 45.0 °F 43.5 °F 42.1 °F 90% 29.82 in 10.0 mi NE 3.5 mph - 0.00 in   Overcast
5:54 AM 45.0 °F 42.6 °F 42.1 °F 90% 29.79 in 10.0 mi NNE 4.6 mph - 0.00 in   Overcast
6:27 AM 44.6 °F 41.4 °F 42.8 °F 93% 29.81 in 7.0 mi Variable 5.8 mph - N/A   Overcast
6:54 AM 44.1 °F 41.5 °F 43.0 °F 96% 29.80 in 5.0 mi ENE 4.6 mph - N/A   Overcast
6:59 AM 44.6 °F 43.1 °F 42.8 °F 93% 29.80 in 5.0 mi ENE 3.5 mph - N/A   Overcast
7:29 AM 44.6 °F 43.1 °F 42.8 °F 93% 29.81 in 3.0 mi NE 3.5 mph - N/A   Overcast
7:43 AM 44.6 °F 42.2 °F 42.8 °F 93% 29.79 in 2.0 mi ENE 4.6 mph - N/A   Overcast
7:50 AM 44.6 °F 43.1 °F 42.8 °F 93% 29.79 in 1.8 mi East 3.5 mph - N/A   Overcast
7:54 AM 44.1 °F 42.5 °F 43.0 °F 96% 29.80 in 1.8 mi East 3.5 mph - N/A   Overcast
8:09 AM 44.6 °F 42.2 °F 42.8 °F 93% 29.79 in 1.5 mi NE 4.6 mph - N/A   Overcast
8:54 AM 44.1 °F 41.5 °F 43.0 °F 96% 29.79 in 1.0 mi Variable 4.6 mph - 0.00 in Rain Light Rain
9:54 AM 45.0 °F - 44.1 °F 97% 29.78 in 1.5 mi Calm Calm - 0.02 in Rain Light Rain
10:26 AM 44.6 °F - 44.6 °F 100% 29.77 in 1.8 mi Calm Calm - 0.00 in   Overcast
10:54 AM 45.0 °F 42.6 °F 44.1 °F 97% 29.75 in 1.5 mi East 4.6 mph - 0.00 in   Overcast
11:54 AM 46.0 °F - 45.0 °F 96% 29.75 in 1.2 mi Calm Calm - 0.01 in   Overcast
12:14 PM 46.4 °F 45.2 °F 44.6 °F 93% 29.70 in 2.0 mi SE 3.5 mph - N/A   Overcast
12:27 PM 46.4 °F - 46.4 °F 100% 29.72 in 1.5 mi Calm Calm - N/A   Overcast
12:54 PM 46.0 °F - 46.0 °F 100% 29.69 in 1.5 mi Calm Calm - 0.01 in   Overcast
1:09 PM 46.4 °F 45.2 °F 44.6 °F 93% 29.69 in 2.0 mi South 3.5 mph - N/A   Overcast
1:17 PM 46.4 °F 45.2 °F 44.6 °F 93% 29.69 in 1.8 mi Variable 3.5 mph - 0.00 in Rain Light Rain
1:52 PM 46.4 °F 45.2 °F 46.4 °F 100% 29.68 in 2.5 mi Variable 3.5 mph - 0.00 in   Overcast
1:54 PM 46.9 °F - 46.0 °F 97% 29.69 in 2.5 mi Calm Calm - 0.00 in   Overcast
2:09 PM 46.4 °F 44.3 °F 46.4 °F 100% 29.67 in 1.8 mi South 4.6 mph - 0.01 in   Overcast
2:18 PM 46.4 °F 45.2 °F 46.4 °F 100% 29.68 in 2.5 mi Variable 3.5 mph - 0.01 in   Overcast
2:25 PM 46.4 °F 45.2 °F 46.4 °F 100% 29.67 in 4.0 mi Variable 3.5 mph - 0.01 in   Overcast
2:54 PM 46.9 °F - 46.0 °F 97% 29.67 in 10.0 mi Variable 4.6 mph - 0.01 in   Overcast
3:28 PM 46.4 °F 42.9 °F 44.6 °F 93% 29.67 in 10.0 mi Variable 6.9 mph - N/A   Overcast
3:54 PM 46.9 °F - 45.0 °F 93% 29.69 in 10.0 mi Variable 5.8 mph - N/A   Overcast
4:17 PM 46.4 °F 42.4 °F 46.4 °F 100% 29.67 in 10.0 mi SSW 8.1 mph - N/A   Overcast
4:54 PM 48.0 °F - 46.0 °F 93% 29.68 in 10.0 mi Variable 6.9 mph - N/A   Overcast
5:21 PM 48.2 °F - 44.6 °F 87% 29.69 in 10.0 mi SW 4.6 mph - N/A   Overcast
5:54 PM 48.0 °F - 45.0 °F 89% 29.72 in 10.0 mi Variable 4.6 mph - N/A   Overcast
6:34 PM 48.2 °F - 44.6 °F 87% 29.73 in 10.0 mi Calm Calm - N/A   Overcast
6:54 PM 46.9 °F - 45.0 °F 93% 29.74 in 10.0 mi WSW 3.5 mph - N/A   Overcast
7:54 PM 48.0 °F - 45.0 °F 89% 29.77 in 10.0 mi Calm Calm - N/A   Overcast
8:54 PM 46.9 °F - 39.0 °F 74% 29.80 in 10.0 mi NW 8.1 mph - N/A   Partly Cloudy
9:54 PM 45.0 °F 42.6 °F 33.1 °F 63% 29.83 in 10.0 mi Variable 4.6 mph - N/A   Clear
10:54 PM 43.0 °F - 32.0 °F 65% 29.86 in 10.0 mi Calm Calm - N/A   Clear
11:54 PM 41.0 °F - 32.0 °F 70% 29.88 in 10.0 mi Calm Calm - N/A   Clear